ENVISAT

Last updated on Thu Nov 21 2024 00:02:12 GMT+0000 (Coordinated Universal Time)

1 27386U 02009A 24325.38780230 .00000296 00000+0 11019-3 0 9995 2 27386 98.3058 281.2259 0001332 81.9071 66.0800 14.38762682190967
UTC large
Height (km)
Speed (km/s)
/
Latitude / Longitude
Inclination (degrees)
Orbital Period (minutes)
Azimuth
Elevation
Range (km)
Doppler Factor

Next 0 passes for location: London (51.5072 / 0.1276)

Sorry there are no passes over London.